�������l�o���
Date,Time,MP-1(��Sv/h),MP-2(��Sv/h),MP-3(��Sv/h),MP-4(��Sv/h),MP-5(��Sv/h),MP-6(��Sv/h),MP-7(��Sv/h),MP-8(��Sv/h),����,����(m/s),���J
2020/06/05,00:00,0.705,1.016,0.641,1.225,0.888,0.405,0.695,0.648,�k��,1.2,��
2020/06/05,00:10,0.708,1.016,0.642,1.222,0.887,0.406,0.693,0.649,�k��,1.2,��
2020/06/05,00:20,0.707,1.016,0.640,1.222,0.887,0.406,0.695,0.648,�k��,1.2,��
2020/06/05,00:30,0.706,1.016,0.641,1.225,0.887,0.406,0.693,0.648,�k�k��,1.7,��
2020/06/05,00:40,0.706,1.016,0.641,1.224,0.886,0.406,0.693,0.648,���k��,0.8,��
2020/06/05,00:50,0.707,1.017,0.640,1.226,0.887,0.404,0.693,0.649,�k�k��,1.7,��
2020/06/05,01:00,0.706,1.017,0.641,1.224,0.887,0.408,0.693,0.648,�k�k��,2.9,��
2020/06/05,01:10,0.706,1.016,0.641,1.225,0.887,0.406,0.694,0.649,�k��,2.8,��
2020/06/05,01:20,0.706,1.015,0.641,1.226,0.888,0.405,0.693,0.648,�k��,2.5,��
2020/06/05,01:30,0.708,1.016,0.643,1.225,0.886,0.405,0.695,0.651,�k�k��,2.0,��
2020/06/05,01:40,0.706,1.016,0.642,1.225,0.887,0.405,0.695,0.648,�k��,2.0,��
2020/06/05,01:50,0.706,1.015,0.641,1.228,0.888,0.404,0.694,0.649,�k��,1.5,��
2020/06/05,02:00,0.705,1.016,0.643,1.222,0.887,0.404,0.693,0.651,�k�k��,1.5,��
2020/06/05,02:10,0.707,1.019,0.643,1.225,0.887,0.403,0.694,0.650,�k,1.2,��
2020/06/05,02:20,0.704,1.015,0.643,1.226,0.889,0.404,0.694,0.649,�k,0.9,��
2020/06/05,02:30,0.707,1.016,0.643,1.226,0.887,0.405,0.695,0.649,�k�k��,0.6,��
2020/06/05,02:40,0.705,1.015,0.643,1.225,0.887,0.406,0.693,0.650,�쐼,0.8,��
2020/06/05,02:50,0.705,1.013,0.643,1.225,0.884,0.404,0.691,0.649,���쐼,1.1,��
2020/06/05,03:00,0.708,1.016,0.643,1.221,0.888,0.404,0.692,0.650,�쐼,1.2,��
2020/06/05,03:10,0.706,1.016,0.642,1.224,0.889,0.404,0.695,0.651,�쐼,1.2,��
2020/06/05,03:20,0.704,1.017,0.643,1.224,0.888,0.401,0.693,0.648,�쐼,1.2,��
2020/06/05,03:30,0.706,1.015,0.642,1.224,0.887,0.402,0.693,0.650,�쐼,2.0,��
2020/06/05,03:40,0.707,1.016,0.643,1.224,0.886,0.404,0.692,0.649,��쐼,1.5,��
2020/06/05,03:50,0.706,1.016,0.642,1.223,0.889,0.404,0.692,0.649,��쐼,2.2,��
2020/06/05,04:00,0.706,1.015,0.643,1.224,0.886,0.403,0.692,0.649,��쐼,2.3,��
2020/06/05,04:10,0.707,1.017,0.641,1.224,0.887,0.401,0.693,0.649,��쐼,2.9,��
2020/06/05,04:20,0.706,1.017,0.643,1.224,0.887,0.403,0.692,0.649,���쐼,3.0,��
2020/06/05,04:30,0.708,1.015,0.642,1.224,0.887,0.403,0.691,0.649,��쐼,1.9,��
2020/06/05,04:40,0.708,1.014,0.642,1.225,0.887,0.404,0.693,0.649,�쐼,1.9,��
2020/06/05,04:50,0.707,1.016,0.641,1.223,0.886,0.404,0.692,0.650,�쐼,2.0,��
2020/06/05,05:00,0.706,1.014,0.641,1.225,0.886,0.403,0.693,0.648,���쐼,2.2,��
2020/06/05,05:10,0.705,1.015,0.642,1.224,0.887,0.404,0.693,0.649,��,2.0,��
2020/06/05,05:20,0.706,1.015,0.643,1.223,0.887,0.404,0.691,0.649,���쐼,2.6,��
2020/06/05,05:30,0.707,1.015,0.642,1.224,0.887,0.403,0.693,0.649,�쐼,2.6,��
2020/06/05,05:40,0.708,1.015,0.642,1.223,0.887,0.404,0.693,0.649,�쐼,1.4,��
2020/06/05,05:50,0.706,1.017,0.641,1.222,0.887,0.405,0.694,0.650,���쐼,1.7,��
2020/06/05,06:00,0.707,1.016,0.641,1.223,0.885,0.404,0.695,0.651,�쐼,1.2,��
2020/06/05,06:10,0.709,1.016,0.641,1.226,0.888,0.403,0.693,0.649,�쐼,1.9,��
2020/06/05,06:20,0.707,1.014,0.642,1.223,0.885,0.405,0.693,0.648,�쐼,1.7,��
2020/06/05,06:30,0.704,1.014,0.641,1.223,0.887,0.402,0.694,0.649,���쐼,1.4,��
2020/06/05,06:40,0.707,1.013,0.639,1.225,0.887,0.403,0.694,0.649,���쐼,1.2,��
2020/06/05,06:50,0.706,1.012,0.641,1.226,0.884,0.403,0.693,0.650,���쐼,0.9,��
2020/06/05,07:00,0.706,1.014,0.640,1.223,0.887,0.402,0.692,0.649,���쐼,1.1,��
2020/06/05,07:10,0.706,1.015,0.640,1.219,0.885,0.400,0.691,0.647,��쐼,1.2,��
2020/06/05,07:20,0.704,1.014,0.642,1.222,0.886,0.402,0.689,0.646,��쐼,1.1,��
2020/06/05,07:30,0.705,1.011,0.643,1.225,0.886,0.402,0.692,0.647,��,1.2,��
2020/06/05,07:40,0.704,1.013,0.642,1.224,0.887,0.402,0.691,0.647,��,0.6,��
2020/06/05,07:50,0.704,1.013,0.643,1.222,0.886,0.402,0.691,0.647,���쓌,1.5,��
2020/06/05,08:00,0.706,1.016,0.642,1.223,0.885,0.402,0.690,0.646,���쓌,1.4,��
2020/06/05,08:10,0.705,1.012,0.645,1.222,0.886,0.402,0.690,0.647,�쓌,1.4,��
2020/06/05,08:20,0.705,1.014,0.643,1.224,0.888,0.402,0.693,0.646,��쓌,1.7,��
2020/06/05,08:30,0.704,1.015,0.641,1.223,0.885,0.402,0.690,0.647,�쓌,2.0,��
2020/06/05,08:40,0.705,1.013,0.643,1.222,0.889,0.403,0.692,0.646,�쓌,2.6,��
2020/06/05,08:50,0.705,1.009,0.644,1.223,0.885,0.402,0.691,0.647,�쓌,2.9,��
2020/06/05,09:00,0.705,1.012,0.638,1.225,0.888,0.402,0.691,0.646,��쓌,2.6,��
2020/06/05,09:10,0.707,1.009,0.638,1.226,0.887,0.402,0.694,0.646,��쓌,3.7,��
2020/06/05,09:20,0.706,1.011,0.637,1.225,0.886,0.402,0.692,0.648,��쓌,4.3,��
2020/06/05,09:30,0.708,1.011,0.640,1.227,0.885,0.403,0.693,0.646,��쓌,5.0,��
2020/06/05,09:40,0.705,1.014,0.639,1.224,0.886,0.403,0.694,0.647,��쓌,4.7,��
2020/06/05,09:50,0.705,1.013,0.638,1.225,0.885,0.403,0.694,0.647,��쓌,5.5,��
2020/06/05,10:00,0.708,1.011,0.638,1.225,0.888,0.403,0.691,0.646,��쓌,6.2,��
2020/06/05,10:10,0.707,1.012,0.638,1.225,0.888,0.405,0.693,0.648,��쓌,6.3,��
2020/06/05,10:20,0.708,1.014,0.636,1.226,0.887,0.404,0.693,0.648,��쓌,7.5,��
2020/06/05,10:30,0.710,1.014,0.646,1.226,0.889,0.405,0.692,0.645,��쓌,7.2,��
2020/06/05,10:40,0.708,1.014,0.647,1.229,0.889,0.404,0.691,0.647,��쓌,8.6,��
2020/06/05,10:50,0.710,1.015,0.647,1.227,0.886,0.405,0.693,0.646,��쓌,7.7,��
2020/06/05,11:00,0.710,1.010,0.646,1.223,0.891,0.406,0.694,0.647,��쓌,9.2,��
2020/06/05,11:10,0.707,1.014,0.645,1.223,0.887,0.404,0.694,0.649,��쓌,9.7,��
2020/06/05,11:20,0.709,1.015,0.645,1.223,0.888,0.403,0.694,0.647,��쓌,9.7,��
2020/06/05,11:30,0.709,1.016,0.645,1.224,0.888,0.404,0.694,0.648,��,8.5,��
2020/06/05,11:40,0.711,1.015,0.646,1.225,0.889,0.404,0.694,0.649,��,7.9,��
2020/06/05,11:50,0.709,1.018,0.647,1.226,0.891,0.405,0.695,0.646,��,7.7,��
2020/06/05,12:00,0.711,1.019,0.647,1.226,0.891,0.404,0.695,0.647,��,7.6,��
2020/06/05,12:10,0.710,1.023,0.646,1.227,0.891,0.406,0.695,0.649,��,8.8,��
2020/06/05,12:20,0.710,1.022,0.648,1.228,0.891,0.405,0.696,0.647,��,8.6,��
2020/06/05,12:30,0.711,1.020,0.644,1.225,0.892,0.406,0.695,0.647,��,8.9,��
2020/06/05,12:40,0.711,1.021,0.639,1.226,0.892,0.405,0.695,0.647,��,8.7,��
2020/06/05,12:50,0.710,1.023,0.638,1.227,0.891,0.406,0.696,0.649,��,9.4,��
2020/06/05,13:00,0.711,1.019,0.639,1.226,0.891,0.407,0.696,0.650,��,9.5,��
2020/06/05,13:10,0.709,1.021,0.637,1.228,0.891,0.405,0.696,0.648,��,8.7,��
2020/06/05,13:20,0.710,1.016,0.638,1.227,0.893,0.405,0.695,0.649,��,8.2,��
2020/06/05,13:30,0.710,1.021,0.638,1.229,0.892,0.405,0.696,0.648,��,9.3,��
2020/06/05,13:40,0.710,1.019,0.644,1.228,0.892,0.404,0.696,0.649,��,9.7,��
2020/06/05,13:50,0.709,1.018,0.639,1.228,0.893,0.407,0.695,0.648,��,10.2,��
2020/06/05,14:00,0.710,1.020,0.635,1.228,0.892,0.406,0.694,0.649,��,11.1,��
2020/06/05,14:10,0.710,1.017,0.637,1.226,0.890,0.405,0.693,0.647,��,9.0,�L
2020/06/05,14:20,0.711,1.015,0.639,1.228,0.893,0.404,0.694,0.647,��,9.1,�L
2020/06/05,14:30,0.709,1.017,0.640,1.230,0.892,0.404,0.694,0.648,��,11.4,�L
2020/06/05,14:40,0.711,1.017,0.639,1.228,0.892,0.404,0.695,0.648,��,9.7,�L
2020/06/05,14:50,0.710,1.017,0.640,1.227,0.891,0.406,0.693,0.649,��,8.2,�L
2020/06/05,15:00,0.711,1.021,0.641,1.229,0.893,0.404,0.694,0.647,��,10.2,��
2020/06/05,15:10,0.710,1.021,0.640,1.229,0.892,0.405,0.694,0.648,��,10.5,��
2020/06/05,15:20,0.711,1.021,0.640,1.232,0.892,0.404,0.694,0.647,��,11.3,��
2020/06/05,15:30,0.710,1.023,0.640,1.227,0.893,0.407,0.695,0.649,��,8.5,��
2020/06/05,15:40,0.711,1.023,0.640,1.231,0.892,0.405,0.694,0.648,��,9.4,��
2020/06/05,15:50,0.712,1.021,0.640,1.229,0.892,0.406,0.695,0.649,��쐼,9.0,��
2020/06/05,16:00,0.713,1.022,0.641,1.232,0.892,0.405,0.695,0.648,��쐼,8.9,��
2020/06/05,16:10,0.712,1.024,0.641,1.229,0.892,0.405,0.696,0.647,��쐼,8.3,��
2020/06/05,16:20,0.714,1.023,0.642,1.233,0.895,0.406,0.694,0.650,��쐼,9.4,��
2020/06/05,16:30,0.711,1.023,0.639,1.233,0.894,0.404,0.696,0.650,��,9.6,��
2020/06/05,16:40,0.712,1.027,0.641,1.233,0.897,0.405,0.696,0.652,��쐼,8.4,��
2020/06/05,16:50,0.712,1.025,0.643,1.234,0.898,0.407,0.695,0.652,��쐼,6.1,��
2020/06/05,17:00,0.713,1.025,0.644,1.233,0.894,0.407,0.695,0.650,��쐼,4.7,��
2020/06/05,17:10,0.709,1.025,0.643,1.233,0.895,0.407,0.694,0.650,��,4.8,��
2020/06/05,17:20,0.712,1.027,0.643,1.233,0.893,0.407,0.695,0.650,��,1.1,��
2020/06/05,17:30,0.710,1.023,0.642,1.236,0.895,0.407,0.695,0.652,�k�k��,1.5,��
2020/06/05,17:40,0.710,1.024,0.642,1.234,0.895,0.405,0.695,0.652,�쐼,2.0,��
2020/06/05,17:50,0.711,1.024,0.641,1.233,0.894,0.406,0.697,0.651,��쐼,2.3,��
2020/06/05,18:00,0.712,1.025,0.642,1.231,0.895,0.409,0.693,0.649,��쐼,1.2,��
2020/06/05,18:10,0.711,1.025,0.644,1.234,0.894,0.406,0.693,0.650,��쓌,2.3,��
2020/06/05,18:20,0.711,1.025,0.643,1.233,0.893,0.407,0.695,0.651,��쓌,4.6,��
2020/06/05,18:30,0.709,1.027,0.642,1.230,0.894,0.407,0.695,0.652,��쓌,4.2,�L
2020/06/05,18:40,0.711,1.026,0.643,1.234,0.894,0.406,0.694,0.651,��쐼,1.7,�L
2020/06/05,18:50,0.710,1.025,0.644,1.232,0.895,0.407,0.694,0.651,���k��,1.7,�L
2020/06/05,19:00,0.712,1.027,0.644,1.235,0.897,0.407,0.695,0.652,�k��,2.5,�L
2020/06/05,19:10,0.714,1.026,0.645,1.235,0.895,0.407,0.695,0.651,�k�k��,4.5,��
2020/06/05,19:20,0.713,1.028,0.645,1.234,0.899,0.408,0.696,0.650,�k��,4.8,��
2020/06/05,19:30,0.713,1.026,0.644,1.237,0.897,0.406,0.696,0.651,�k��,3.2,��
2020/06/05,19:40,0.713,1.027,0.644,1.234,0.895,0.407,0.697,0.651,�k��,3.1,��
2020/06/05,19:50,0.713,1.027,0.644,1.235,0.896,0.407,0.696,0.650,�k��,4.8,��
2020/06/05,20:00,0.712,1.028,0.643,1.237,0.894,0.406,0.696,0.651,�k��,3.4,��
2020/06/05,20:10,0.712,1.027,0.643,1.236,0.895,0.405,0.695,0.650,���k��,1.5,��
2020/06/05,20:20,0.712,1.028,0.643,1.234,0.894,0.405,0.696,0.651,-,CALM,��
2020/06/05,20:30,0.712,1.027,0.643,1.235,0.894,0.405,0.696,0.650,-,CALM,��
2020/06/05,20:40,0.713,1.026,0.644,1.236,0.895,0.408,0.694,0.652,��,1.5,��
2020/06/05,20:50,0.712,1.027,0.643,1.234,0.894,0.406,0.696,0.651,�쐼,2.0,��
2020/06/05,21:00,0.713,1.026,0.644,1.236,0.894,0.406,0.696,0.652,��쐼,3.0,��
2020/06/05,21:10,0.713,1.024,0.642,1.236,0.896,0.405,0.695,0.650,��쐼,3.5,��
2020/06/05,21:20,0.714,1.028,0.642,1.236,0.894,0.406,0.695,0.650,��쐼,3.1,��
2020/06/05,21:30,0.713,1.026,0.642,1.235,0.895,0.405,0.697,0.652,�쐼,4.4,��
2020/06/05,21:40,0.714,1.027,0.642,1.234,0.894,0.404,0.695,0.650,�쐼,4.2,��
2020/06/05,21:50,0.712,1.026,0.644,1.236,0.894,0.407,0.697,0.650,��,7.0,��
2020/06/05,22:00,0.714,1.027,0.644,1.237,0.897,0.406,0.696,0.651,��쐼,6.9,��
2020/06/05,22:10,0.712,1.026,0.644,1.233,0.896,0.407,0.698,0.651,��쐼,5.4,��
2020/06/05,22:20,0.712,1.025,0.641,1.235,0.893,0.405,0.694,0.651,��쐼,5.3,�L
2020/06/05,22:30,0.711,1.022,0.644,1.235,0.894,0.405,0.694,0.651,�쐼,3.8,�L
2020/06/05,22:40,0.710,1.024,0.644,1.234,0.894,0.406,0.695,0.650,�쐼,5.1,��
2020/06/05,22:50,0.710,1.025,0.643,1.235,0.895,0.406,0.695,0.652,�쐼,5.5,��
2020/06/05,23:00,0.710,1.024,0.644,1.233,0.894,0.405,0.696,0.650,���쐼,2.8,�L
2020/06/05,23:10,0.713,1.025,0.642,1.234,0.896,0.406,0.696,0.651,���쐼,2.3,�L
2020/06/05,23:20,0.711,1.025,0.643,1.237,0.895,0.406,0.695,0.651,���k��,2.2,��
2020/06/05,23:30,0.711,1.027,0.642,1.234,0.896,0.407,0.695,0.652,�k��,1.9,��
2020/06/05,23:40,0.712,1.026,0.643,1.234,0.895,0.407,0.697,0.650,�k��,1.5,��
2020/06/05,23:50,0.712,1.027,0.643,1.234,0.894,0.407,0.695,0.651,�k��,2.6,�L
